Location: Ansan
(43.6898°N, 0.7731°E)
Time: 11:23:07
(UTC+00:00)

Cosmos 2228 - Pass Details

Date: 15 May 2026
Orbit: 562 x 587 km, 82.5° (Epoch: 6 June)

Event Time Altitude Azimuth Distance (km) Brightness Sun altitude
Rises 19:38:01 0° 163° (SSE) 2,755 5.9 -4.4°
Reaches altitude 10° 19:40:22 10° 153° (SSE) 1,860 5.0 -4.7°
Maximum altitude 19:43:59 31° 91° (E) 1,005 3.7 -5.3°
Drops below altitude 10° 19:47:37 10° 29° (NNE) 1,865 5.6 -5.9°
Sets 19:49:58 0° 19° (NNE) 2,765 6.6 -6.2°
